Location: Gleizolles
(44.4833°N, 6.7667°E)
Time: 22:24:43
(UTC+00:00)

Tiros 1 despin weight - Pass Details

Date: 01 July 2024
Orbit: 576 x 620 km, 48.2° (Epoch: 19 July)

Event Time Altitude Azimuth Distance (km) Brightness Sun altitude
Rises 11:06:51 0° 279° (W) 2,882 ? 67.7°
Reaches altitude 10° 11:09:12 10° 284° (WNW) 1,981 ? 67.8°
Maximum altitude 11:13:40 53° 1° (N) 767 ? 68.0°
Drops below altitude 10° 11:18:09 10° 79° (E) 1,988 ? 68.2°
Sets 11:20:31 0° 84° (E) 2,892 ? 68.3°
